Regional Weather Roundup
Issued by NWS

Home | Current Version | Previous Version | Graphics & Text | Print | Product List | Glossary On
Versions: 1 2 3 4 5 6 7 8 9 10 11 12 13 14 15 16 17 18 19 20 21 22 23 24 25 26 27 28 29 30 31 32 33 34 35 36 37 38 39 40 41 42 43 44 45 46 47 48 49 50
000
ASUS43 KIND 291809
RWRIN

WEATHER ROUNDUP FOR INDIANA
NATIONAL WEATHER SERVICE INDIANAPOLIS IN
200 PM EDT WED OCT 29 2014

NOTE: "FAIR" INDICATES FEW OR NO CLOUDS BELOW 12,000 FEET WITH NO
SIGNIFICANT WEATHER AND/OR OBSTRUCTIONS TO VISIBILITY.

* - STATION DOES NOT REPORT WEATHER SUCH AS PRECIPITATION OR FOG.

+ - STATION NOT QUALITY CONTROLLED BY THE NATIONAL WEATHER SERVICE.
    USE DATA WITH CAUTION...ESPECIALLY DEWPOINT AND RELATIVE
    HUMIDITY OBSERVATIONS.

INZ001>003-010>013-019-020-291900-
NORTHWEST INDIANA

CITY           SKY/WX    TMP DP  RH WIND       PRES   REMARKS
GARY /AIRPORT/ CLOUDY    48  30  49 W12G23    30.09S
KNOX *+        CLOUDY    46  32  59 NW10      30.07S
LA PORTE +     CLOUDY    47  34  61 W7        30.07S
6HR MIN TEMP:  44; 6HR MAX TEMP:  47;

MICHIGAN CITY+ CLOUDY    45  32  61 NW8       30.07S
MONTICELLO +   CLOUDY    47  33  59 NW10G16   30.08S
RENSSELAER +   CLOUDY    46  36  66 NW8       30.09S
VALPARAISO     CLOUDY    46  31  55 W12       30.08S
6HR MIN TEMP:  42; 6HR MAX TEMP:  46;


$$

LMZ046-743>745-291900-
SOUTHERN LAKE MICHIGAN

STATION/POSITION TIME  TEMP WIND        PRES
                       AIR  DIR/SP/G
                 (UTC) (F)  (DEG/KT/KT) (MB)
MICHIGAN CITY    1800   46  270/ 15/ 19   N/A

$$

INZ004-005-014>016-021>024-291900-
NORTH CENTRAL INDIANA

CITY           SKY/WX    TMP DP  RH WIND       PRES   REMARKS
ELKHART        CLOUDY    46  34  61 W13       30.05S
GOSHEN         CLOUDY    46  35  65 W17       30.04S
6HR MIN TEMP:  40; 6HR MAX TEMP:  46;

LOGANSPORT +   CLOUDY    45  32  61 W12       30.08F
PERU/GRISSOM   CLOUDY    46  37  71 W13       30.07F
6HR MIN TEMP:  39; 6HR MAX TEMP:  47;

ROCHESTER +    CLOUDY    46  34  61 NW8       30.07S
SOUTH BEND     CLOUDY    47  34  60 W13       30.06S
6HR MIN TEMP:  43; 6HR MAX TEMP:  47;

WARSAW +       CLOUDY    45  34  65 W14G20    30.06S

$$

INZ006>009-017-018-025>027-291900-
NORTHEAST INDIANA

CITY           SKY/WX    TMP DP  RH WIND       PRES   REMARKS
ANGOLA *+      CLOUDY    45  36  70 W13       30.02S
AUBURN +       CLOUDY    46  34  61 W12       30.04S
FORT WAYNE     CLOUDY    48  34  58 W14G22    30.06S
6HR MIN TEMP:  41; 6HR MAX TEMP:  48;

HUNTINGTON +   CLOUDY   N/A N/A N/A W14       30.05F

$$

INZ028-029-035-036-043>045-051>053-291900-
WEST CENTRAL INDIANA

CITY           SKY/WX    TMP DP  RH WIND       PRES   REMARKS
GREENCASTLE +  MOSUNNY   52  36  54 W7        30.10F
LAFAYETTE      CLOUDY    47  36  65 W14       30.10S
6HR MIN TEMP:  37; 6HR MAX TEMP:  47;

TERRE HAUTE    MOSUNNY   52  37  56 NW13      30.12F
6HR MIN TEMP:  40; 6HR MAX TEMP:  53;


$$

INZ030>032-037>040-046>048-054>057-064-065-291900-
CENTRAL INDIANA

CITY           SKY/WX    TMP DP  RH WIND       PRES   REMARKS
ANDERSON       CLOUDY    46  32  57 W17G29    30.09S
CP ATTERBURY + MOSUNNY   54  34  47 W6G22     30.09F
COLUMBUS       MOSUNNY   55  36  47 MISG      30.08F
FRANKFORT +    CLOUDY    48  35  60 SW15      30.10F
INDIANAPOLIS   PTSUNNY   52  34  50 W16G23    30.09S
6HR MIN TEMP:  39; 6HR MAX TEMP:  53;

-EAGLE CREEK   CLOUDY    51  35  54 W16       30.08F
6HR MIN TEMP:  43; 6HR MAX TEMP:  52;

KOKOMO *+      CLOUDY    46  34  61 W15       30.08F
MARION +       CLOUDY    46  32  58 W15       30.08S
MT COMFORT *+  CLOUDY    52  27  37 NW14G20   30.08F
SHELBYVILLE    PTSUNNY   53  35  50 W9        30.08S
6HR MIN TEMP:  42; 6HR MAX TEMP:  55;

ZIONSVILLE +   CLOUDY    49  33  52 W10G21    30.09F
6HR MIN TEMP:  41; 6HR MAX TEMP:  50;


$$

INZ033-034-041-042-049-050-058-059-291900-
EAST CENTRAL INDIANA

CITY           SKY/WX    TMP DP  RH WIND       PRES   REMARKS
MUNCIE         CLOUDY    47  34  60 W15G22    30.07F
6HR MIN TEMP:  43; 6HR MAX TEMP:  49;


$$

INZ060-061-067>069-081>083-085>088-291900-
SOUTHWEST INDIANA

CITY           SKY/WX    TMP DP  RH WIND       PRES   REMARKS
EVANSVILLE     SUNNY     60  36  40 W8G21     30.13F
6HR MIN TEMP:  42; 6HR MAX TEMP:  60;

HUNTINGBURG *+ SUNNY     59  39  47 N12       30.13F
6HR MIN TEMP:  41; 6HR MAX TEMP:  59;

WASHINGTON +   SUNNY     56  38  50 W16       30.12F
6HR MIN TEMP:  42; 6HR MAX TEMP:  57;


$$

INZ062-063-066-070>080-084-089>092-291900-
SOUTH CENTRAL AND SOUTHEAST INDIANA

CITY           SKY/WX    TMP DP  RH WIND       PRES   REMARKS
BLOOMINGTON    MOSUNNY   53  35  50 W13       30.10F
6HR MIN TEMP:  38; 6HR MAX TEMP:  55;

SEYMOUR +      SUNNY     61  37  41 W18G24    30.08

$$




USA.gov is the U.S. government's official web portal to all federal, state and local government web resources and services.